This is the latest recevied weather packets stored in our database for station/object IW1CBG-3. If no packets are shown the sender has not sent any weather packets the latest 10 day(s).
| Time | Temp. | Humidity | Pressure | Rain* | Wind** | Luminosity | Snow |
|---|---|---|---|---|---|---|---|
| 1777792238 | 11.11° C | 61% | 1031.8 hPa | 0 mm | - | - | - |
| 1777791639 | 10.56° C | 60% | 1032.3 hPa | 0 mm | - | - | - |
| 1777791039 | 10.56° C | 62% | 1032.3 hPa | 0 mm | - | - | - |
| 1777790438 | 10° C | 61% | 1032.4 hPa | 0 mm | - | - | - |
| 1777789839 | 10° C | 60% | 1032.5 hPa | 0 mm | - | - | - |
| 1777789238 | 9.44° C | 62% | 1032.8 hPa | 0 mm | - | - | - |
| 1777788638 | 8.89° C | 69% | 1033 hPa | 0 mm | - | - | - |
| 1777788038 | 8.33° C | 68% | 1033.3 hPa | 0 mm | - | - | - |
| 1777787439 | 7.78° C | 71% | 1033.6 hPa | 0 mm | - | - | - |
| 1777786839 | 6.67° C | 76% | 1033.9 hPa | 0 mm | - | - | - |
| 1777786239 | 6.67° C | 73% | 1033.6 hPa | 0 mm | - | - | - |
| 1777785639 | 6.67° C | 76% | 1033.8 hPa | 0 mm | - | - | - |
| 1777785038 | 6.11° C | 79% | 1034.2 hPa | 0 mm | - | - | - |
| 1777784438 | 5° C | 82% | 1034.4 hPa | 0 mm | - | - | - |
| 1777783839 | 5.56° C | 81% | 1034.2 hPa | 0 mm | - | - | - |
| 1777783238 | 5° C | 85% | 1034.6 hPa | 0 mm | - | - | - |
| 1777782639 | 5° C | 85% | 1034.7 hPa | 0 mm | - | - | - |
| 1777782038 | 5° C | 85% | 1034.7 hPa | 0 mm | - | - | - |
| 1777781437 | 4.44° C | 86% | 1034.7 hPa | 0 mm | - | - | - |
| 1777780839 | 5° C | 85% | 1034.8 hPa | 0 mm | - | - | - |
| 1777780239 | 5° C | 85% | 1034.7 hPa | 0 mm | - | - | - |
| 1777779638 | 4.44° C | 88% | 1034.7 hPa | 0 mm | - | - | - |
| 1777779040 | 4.44° C | 89% | 1035 hPa | 0 mm | - | - | - |
| 1777778439 | 5° C | 88% | 1034.8 hPa | 0 mm | - | - | - |
| 1777777838 | 5° C | 88% | 1034.9 hPa | 0 mm | - | - | - |
* Rain latest hour (hover to see other rain measurements)
** Current wind speed in m/s (hover to see current wind gust speed)